Theta_e
351 347 344 344 341 341 339 336 331 328 325 325 330 338 343 344 346 346 345 346 346 346 344 339 336 335 333 330 328 330 334 336 338 339 340 341 342 342 343 343 343 343 343 343 342 342 342 341 343 344 344 344 343 341 339 339 338 336 331 325 324 327 332 335 336 335 337 337 335 335 334 334 334 334 333 333 333 334 334 332 331 331 333 334 334
349 346 344 343 342 342 339 336 330 328 325 326 333 338 342 343 345 345 345 346 346 345 342 338 335 333 332 328 329 333 334 336 338 339 340 341 342 342 343 343 343 344 343 343 343 342 340 340 341 342 343 342 341 340 340 338 336 331 324 323 328 333 334 335 335 334 336 337 336 335 334 335 334 333 334 335 334 333 333 331 330 331 333 334 333
349 346 344 343 343 343 340 336 331 328 326 327 335 340 342 343 345 344 347 346 345 343 340 338 335 332 330 328 332 334 334 337 338 338 339 340 341 342 342 343 344 344 344 343 341 339 338 339 339 340 340 341 340 340 339 334 330 327 324 326 330 334 335 335 335 333 335 336 335 334 333 333 333 333 334 335 333 332 331 331 330 332 333 334 333
348 346 343 343 343 343 341 336 331 329 327 331 337 341 342 343 345 344 347 346 344 342 340 338 333 331 328 329 333 334 335 337 337 337 338 338 339 340 342 342 343 343 343 342 338 336 336 336 335 337 340 340 339 338 334 328 327 329 329 330 331 333 334 335 337 334 333 336 335 333 332 331 331 332 334 334 333 331 331 331 332 334 334 334 333
347 345 342 342 342 345 343 337 331 328 330 338 341 342 344 344 345 345 346 345 344 341 338 333 329 329 328 331 334 334 336 337 338 337 337 338 340 341 341 342 342 343 342 341 337 334 333 333 335 338 339 340 339 336 331 328 331 334 335 333 331 332 333 333 336 336 335 337 336 334 331 329 330 332 333 334 333 332 332 332 333 334 334 333 333
347 344 343 344 345 346 344 338 333 332 335 342 343 343 344 344 344 345 344 341 339 335 332 329 328 328 330 333 334 334 336 338 338 337 337 338 340 340 341 340 340 341 342 341 337 335 335 335 338 340 340 339 338 335 331 332 334 335 336 335 332 332 332 333 335 335 336 337 337 333 330 329 329 332 333 333 333 333 333 333 333 333 333 332 332
346 345 346 346 346 345 343 337 337 339 340 342 342 342 343 343 343 341 338 336 334 332 331 330 329 330 332 334 334 335 336 338 338 336 336 338 339 339 340 340 340 340 341 341 339 337 336 337 340 340 339 338 337 335 335 336 336 334 335 334 332 332 332 333 334 335 336 337 337 333 330 330 329 331 333 333 333 333 333 333 333 333 333 332 332
346 346 347 347 346 344 343 338 339 340 339 340 339 341 341 341 340 337 336 336 335 334 334 333 332 332 332 333 334 335 337 338 337 337 337 339 339 339 340 340 340 340 341 342 341 339 335 337 340 339 339 337 336 336 336 336 336 335 335 334 331 331 331 331 332 334 336 336 338 334 329 331 330 331 333 333 333 332 333 333 333 333 333 332 332
345 345 346 346 346 345 344 342 340 339 339 340 341 342 342 342 341 339 338 337 337 336 335 335 335 334 334 334 334 335 337 337 338 339 339 340 340 340 340 341 341 341 341 341 343 341 336 338 341 339 338 338 337 337 336 335 335 334 333 333 330 330 330 330 331 332 335 336 337 335 330 331 331 332 333 333 334 333 334 333 333 333 332 332 331
343 342 344 345 346 346 345 343 341 341 341 341 341 341 340 339 338 338 338 337 336 335 335 335 336 336 336 336 337 337 338 338 339 340 340 340 340 340 340 341 342 342 342 341 342 341 337 338 340 339 338 337 337 336 335 335 335 332 331 332 329 328 329 330 331 331 334 335 335 332 331 333 332 333 334 334 334 334 334 334 333 333 332 331 331
341 341 343 343 344 345 345 344 342 340 339 337 336 336 335 333 333 336 338 338 337 336 336 337 336 336 337 337 338 339 339 340 340 341 340 341 340 340 340 341 342 342 342 341 342 341 338 338 340 339 336 335 334 335 336 336 335 332 329 330 328 328 329 330 332 333 335 334 332 331 332 333 332 332 334 334 335 335 334 333 333 332 332 331 331
340 342 342 343 343 344 344 343 340 338 337 336 335 334 333 333 335 338 339 340 338 336 337 337 337 337 338 338 338 339 339 340 340 340 339 339 339 339 339 340 340 340 342 341 341 341 339 338 338 335 332 332 333 334 334 333 332 328 326 326 326 327 330 332 333 335 334 330 330 331 332 332 330 332 334 334 335 334 332 331 332 331 331 331 329
342 343 343 343 343 342 341 339 338 338 338 337 335 334 333 333 336 338 339 340 338 337 337 336 336 336 337 337 337 337 337 338 339 339 338 337 338 338 338 339 338 339 341 341 340 341 339 338 336 330 328 330 331 332 331 331 330 329 327 326 326 329 331 333 335 336 332 328 330 332 332 330 328 330 333 334 334 333 332 331 331 331 330 329 329
341 344 343 342 342 340 338 338 339 338 338 337 335 334 333 333 335 337 337 337 338 337 336 336 335 335 335 336 336 337 337 337 338 339 337 336 337 336 337 339 339 339 340 340 339 340 339 338 334 328 327 329 329 329 329 331 332 332 331 330 330 331 333 334 336 337 332 329 332 332 332 330 328 330 332 333 333 333 332 332 331 330 330 329 330
339 341 341 340 340 337 336 337 338 338 337 337 336 335 334 334 335 337 336 337 338 337 336 336 334 335 336 337 338 337 337 338 338 338 336 336 336 336 337 339 340 339 340 339 339 338 338 337 332 328 328 329 330 330 330 331 333 334 333 332 332 333 334 335 336 337 331 330 334 333 333 329 327 330 332 333 332 332 332 331 331 331 330 329 330
339 339 340 340 339 337 336 338 338 337 336 337 337 337 336 336 337 336 336 337 338 336 335 335 334 335 336 338 339 338 337 337 337 337 337 336 336 337 337 339 340 340 339 339 339 338 338 337 331 327 330 331 333 333 332 333 334 334 333 333 333 333 334 334 337 337 331 331 334 333 333 328 326 329 332 333 332 332 332 331 331 331 330 328 329
339 339 338 339 340 338 337 337 337 337 336 337 337 337 337 337 337 336 336 337 337 337 335 334 335 336 337 338 338 337 338 337 337 337 337 336 336 337 337 338 340 339 340 339 340 340 337 335 328 327 332 333 334 335 334 335 334 334 334 333 334 332 334 334 336 336 332 331 334 334 332 328 328 330 331 333 332 332 332 332 331 330 330 328 329
338 339 338 339 340 338 337 338 338 337 336 337 336 337 336 336 336 336 337 337 337 337 336 336 336 337 337 337 336 336 338 338 337 336 336 335 334 336 336 337 338 337 335 333 334 333 331 332 328 328 335 334 334 335 334 334 333 334 334 334 334 333 334 334 335 337 333 331 334 335 332 328 328 330 332 333 333 333 332 332 330 329 329 329 329
336 337 337 338 339 338 339 340 339 338 338 337 337 337 336 336 336 335 336 336 336 336 337 337 336 337 336 337 336 336 337 336 336 335 334 334 335 336 336 335 333 330 327 324 323 323 329 334 330 331 336 334 335 335 333 334 334 334 334 334 333 333 333 334 335 338 332 328 334 335 332 327 326 329 332 334 333 333 332 332 331 329 329 329 329
336 337 337 337 338 338 338 338 338 338 339 339 337 337 337 337 336 336 336 336 336 335 336 337 336 336 336 336 335 336 336 335 335 335 335 335 336 336 336 335 332 329 327 322 318 323 333 334 331 335 337 335 335 333 333 334 334 333 332 332 332 332 333 334 337 339 332 328 333 335 332 328 326 327 331 334 333 332 332 332 332 330 328 328 329
335 337 337 336 337 337 337 337 337 337 338 339 338 337 336 336 336 336 335 335 336 335 336 337 335 334 335 335 335 335 335 335 335 335 335 336 337 335 335 335 334 333 330 326 319 321 330 332 333 337 336 335 334 333 333 333 332 331 331 332 332 332 334 337 338 337 332 331 333 333 333 331 327 327 330 333 334 332 332 332 332 331 329 328 329
336 336 336 337 337 338 337 337 337 338 338 338 338 337 337 337 337 336 336 335 336 336 337 336 333 333 334 335 335 336 335 336 336 335 335 336 336 335 335 335 335 335 333 331 324 320 327 333 335 336 335 335 334 333 333 333 332 330 330 331 331 334 337 338 337 334 333 333 331 332 333 329 326 327 330 333 334 332 332 332 332 331 329 329 330
337 337 337 338 339 338 337 337 337 337 337 336 337 337 337 338 338 338 336 335 336 335 335 335 334 335 335 335 335 335 335 336 336 335 336 336 334 334 335 335 336 335 334 333 329 324 328 333 334 334 334 334 333 332 334 336 335 332 331 330 331 334 337 338 337 334 334 333 332 332 331 323 323 328 331 333 333 333 333 332 332 331 329 329 330
338 338 339 340 340 338 337 337 337 337 337 336 336 337 336 336 336 337 336 336 335 335 334 335 334 334 335 335 334 335 335 335 335 335 336 335 334 334 335 335 335 336 334 333 333 330 328 330 330 331 331 332 332 333 335 336 335 335 333 330 331 334 335 336 337 335 334 334 331 331 327 321 321 326 331 333 333 334 333 332 332 332 330 329 330
339 338 339 340 339 339 338 338 338 337 337 336 337 337 335 334 335 335 335 335 335 334 334 334 334 333 334 334 334 334 334 334 334 334 335 335 335 335 334 335 335 336 335 334 335 333 330 330 331 330 329 331 333 333 333 334 333 335 334 332 332 333 333 334 335 334 335 334 331 329 325 320 320 325 330 333 334 334 334 334 333 332 331 329 329
337 337 338 339 339 339 339 338 338 337 337 337 336 336 335 334 335 335 335 335 334 334 334 335 335 334 334 335 334 334 334 334 334 334 335 335 336 336 335 335 335 335 336 335 334 334 333 334 334 333 331 331 333 332 332 332 332 332 333 332 331 331 332 332 333 334 334 333 331 329 326 320 318 324 330 333 334 334 334 333 333 333 331 330 329
337 337 338 339 338 338 338 337 338 338 337 336 334 335 335 335 335 336 336 336 335 335 336 335 335 335 334 334 335 335 335 335 334 335 335 335 335 335 335 335 335 335 336 336 334 334 334 334 335 334 333 333 332 331 332 332 332 331 331 331 332 332 331 331 331 334 335 333 332 331 328 323 318 321 329 333 334 333 333 334 333 333 332 331 330
338 338 338 339 339 337 337 338 338 338 338 337 336 336 337 337 337 337 337 336 336 336 336 335 335 336 334 334 335 336 335 335 335 334 334 334 334 333 334 334 334 334 335 335 334 334 334 333 334 334 333 333 333 332 332 332 331 331 331 331 331 332 331 331 331 332 333 334 333 331 329 327 322 321 325 331 332 332 333 333 334 333 332 332 331
339 338 338 339 339 337 338 339 339 339 338 338 338 338 338 339 338 337 336 337 337 337 337 336 336 335 335 335 336 335 334 335 336 334 334 334 333 333 333 334 333 333 334 334 334 334 333 333 333 333 333 333 332 332 332 331 331 331 331 331 331 331 331 331 330 331 332 333 333 331 330 330 327 324 322 326 331 332 332 333 334 333 333 332 332
339 339 339 339 338 337 337 338 339 340 339 339 338 338 338 338 338 338 338 338 337 337 337 337 336 335 336 337 337 337 335 335 335 334 333 333 333 333 332 333 332 332 334 334 333 333 333 332 332 333 333 332 333 333 331 332 332 331 332 332 332 331 330 330 331 331 331 334 335 332 331 330 329 328 324 324 327 330 333 334 335 334 333 333 332
339 338 339 339 338 336 337 337 336 338 339 338 338 338 337 337 338 337 337 338 338 337 337 336 336 335 335 337 338 337 335 336 336 335 334 334 333 332 332 333 333 333 333 333 332 333 333 333 333 333 332 332 333 334 333 334 334 333 332 332 333 332 331 330 330 330 330 333 336 335 331 331 331 329 328 326 325 327 331 334 335 335 334 333 333
338 339 339 340 339 337 337 337 335 336 338 337 337 337 337 337 337 337 337 337 338 337 336 335 334 334 336 337 337 336 336 337 337 336 335 334 333 333 333 333 333 333 333 333 334 334 334 333 334 333 333 333 334 334 333 334 333 332 332 332 333 332 331 330 330 330 329 330 335 336 333 332 332 330 330 329 327 326 327 329 333 335 335 334 334
338 339 339 341 341 337 337 338 337 338 339 338 338 337 337 337 336 337 337 337 337 336 334 333 333 334 335 336 336 335 336 337 337 337 336 335 335 335 335 334 334 334 334 334 334 336 335 334 334 334 333 334 334 333 333 333 332 333 333 332 333 332 331 330 329 330 331 329 331 334 335 334 332 331 331 330 329 328 326 325 328 332 335 335 334
338 338 338 339 340 337 336 338 340 339 339 339 338 338 338 337 336 337 337 337 337 335 334 333 333 333 334 335 335 335 335 336 336 337 337 336 336 336 335 335 335 335 335 334 333 335 335 334 335 334 334 334 333 334 333 333 333 333 333 332 332 332 332 330 329 331 332 331 329 332 336 335 333 332 331 331 331 330 329 327 327 328 332 335 335
338 337 336 336 338 338 337 339 340 339 340 340 339 339 339 338 337 336 336 337 336 335 333 332 332 332 332 334 335 335 335 335 335 335 335 334 335 335 334 334 334 335 335 335 334 335 335 334 335 335 335 334 334 334 333 333 333 333 332 332 333 333 332 331 331 333 332 332 330 331 334 334 335 336 333 331 331 331 330 329 328 327 328 332 334
335 334 334 333 335 337 338 339 340 339 339 339 339 339 338 338 338 336 335 336 334 333 333 331 331 331 331 333 334 335 334 334 334 334 334 334 333 334 333 333 333 333 334 335 335 335 335 334 335 335 335 335 335 334 333 333 333 332 331 333 334 333 333 332 331 332 332 333 332 330 332 331 333 337 336 335 333 332 331 330 330 328 328 328 329
336 334 334 333 334 335 336 337 338 339 339 339 339 338 337 337 336 335 335 334 332 332 332 331 331 331 331 332 334 334 334 333 334 334 334 333 333 333 333 334 334 334 334 335 335 335 334 335 335 335 335 335 335 334 334 334 333 332 332 334 334 332 333 333 333 332 332 332 332 332 332 331 331 334 338 339 337 335 334 332 331 330 329 327 328
338 336 335 335 335 336 337 337 337 338 338 337 337 337 336 336 335 335 335 334 332 332 331 331 330 330 331 332 333 333 333 333 333 333 332 332 333 332 332 333 334 333 333 334 333 333 334 334 336 335 335 335 335 334 333 333 333 332 333 332 333 333 333 333 333 332 333 332 333 333 332 332 331 332 335 337 336 338 338 335 333 332 330 328 328
337 336 336 336 337 338 338 338 337 337 336 335 335 334 334 334 333 333 333 331 331 330 329 330 330 329 330 331 332 332 332 331 331 332 331 332 333 332 332 333 333 333 333 333 332 332 332 333 335 335 334 335 334 333 332 333 333 332 333 332 333 333 333 334 334 333 334 333 332 332 332 332 332 330 332 332 333 336 338 337 336 335 334 332 330
335 336 336 336 336 337 337 336 335 335 335 335 334 334 334 333 332 332 332 330 328 328 328 330 330 329 331 331 331 332 331 329 329 331 331 332 332 331 331 332 332 333 332 333 332 332 333 333 333 333 333 333 333 332 332 332 332 332 332 332 333 332 333 334 335 334 334 333 333 333 333 333 333 332 331 330 331 332 334 335 336 336 338 337 334
333 333 334 335 335 335 335 336 335 335 335 334 333 335 335 334 333 333 332 329 328 327 328 329 329 330 331 331 330 331 330 329 330 331 331 331 331 331 331 331 332 331 332 333 333 332 333 333 333 333 332 332 332 332 332 332 332 332 332 332 332 332 333 333 334 333 332 332 333 334 335 334 333 334 333 332 332 332 331 332 333 334 337 339 338
332 332 333 333 333 334 334 335 335 335 334 332 332 334 335 334 334 334 332 329 328 329 328 328 328 329 329 330 330 330 329 329 329 330 330 330 329 330 331 331 331 331 331 332 332 332 332 332 331 331 331 331 331 331 331 331 331 331 332 333 334 333 332 332 333 333 332 333 332 333 334 334 332 333 333 332 332 332 330 332 333 333 336 338 338
331 332 333 333 333 333 333 333 333 332 331 330 332 333 334 334 333 333 332 330 329 328 328 328 328 328 328 328 329 329 329 328 327 328 328 329 329 329 329 329 329 330 330 331 331 332 332 332 331 330 331 330 330 330 330 330 330 330 331 334 336 336 335 334 332 332 333 333 332 331 331 333 332 332 331 330 331 332 331 331 332 333 335 336 336
330 331 331 331 331 331 332 331 331 330 330 330 331 332 333 334 333 332 331 330 330 328 328 328 328 328 327 327 326 327 328 326 326 326 327 328 328 328 329 329 329 329 330 330 331 331 331 332 331 331 331 331 330 329 329 330 330 330 330 333 334 333 335 335 335 334 332 332 332 330 330 330 330 331 331 330 330 331 331 330 331 332 333 334 334
329 330 329 330 330 331 330 330 331 330 330 330 330 331 332 334 333 332 331 331 332 330 330 329 329 328 327 327 327 326 326 325 324 325 326 326 326 327 328 329 329 329 329 330 331 330 329 330 331 331 330 331 331 330 329 328 330 330 329 330 333 334 334 332 333 335 332 330 331 330 330 329 329 330 330 329 329 328 330 330 330 331 332 332 332
328 328 328 329 329 330 330 330 330 330 330 329 330 330 331 332 331 331 331 332 332 331 332 331 329 328 328 328 328 327 326 326 325 324 325 325 325 325 326 327 327 327 328 329 330 331 330 330 330 330 330 330 330 330 329 327 328 330 329 329 330 332 332 330 332 335 332 330 330 329 330 329 329 330 329 330 329 329 330 331 331 331 331 332 331
328 328 328 328 328 329 329 329 329 329 329 329 329 329 329 330 330 330 330 331 332 332 332 330 328 327 326 327 328 327 327 327 326 325 324 325 325 325 325 325 325 325 327 328 329 330 330 329 329 328 328 329 329 330 330 328 327 329 330 329 327 325 326 327 330 332 333 332 330 329 329 328 330 329 329 330 330 330 330 330 331 331 331 332 331
327 327 327 327 327 328 327 328 328 328 328 327 327 328 328 328 328 328 329 329 330 331 331 331 330 329 328 328 328 327 327 327 326 326 326 325 326 324 324 324 324 324 325 326 327 328 329 329 329 329 329 329 330 329 329 328 327 327 328 328 328 326 325 324 324 324 328 330 330 331 330 328 329 329 329 330 331 330 329 330 331 331 330 330 330
326 326 326 325 325 326 326 326 326 326 326 327 326 326 326 326 326 326 327 327 327 328 328 329 330 329 329 329 329 328 327 326 326 326 326 325 326 325 324 324 324 324 325 325 326 326 327 327 328 328 329 329 329 328 327 327 327 326 326 328 328 328 326 324 321 320 323 326 327 330 329 329 329 329 328 329 330 329 328 328 329 330 330 329 328
325 325 325 324 324 324 324 324 324 324 324 325 325 325 325 325 325 325 325 325 325 325 326 326 327 327 327 327 327 327 328 327 326 327 326 326 326 325 325 325 325 324 324 324 324 324 325 325 327 328 329 329 329 329 328 328 326 325 325 327 328 328 327 325 323 321 322 323 324 324 324 329 331 330 328 327 329 329 327 325 326 327 328 328 327
323 323 324 324 323 323 323 323 323 323 323 323 324 324 324 324 324 324 323 324 324 324 324 325 325 325 325 325 326 326 326 326 327 326 326 326 326 326 326 326 326 326 324 323 323 324 325 324 325 327 328 329 329 329 329 328 326 325 325 326 327 327 328 327 325 324 326 327 328 327 324 326 329 329 329 327 327 328 327 326 325 324 325 325 327
Wind_Speed
10 11 13 11 10 9 9 9 8 6 7 8 10 12 12 12 11 11 9 9 9 10 11 11 11 11 11 12 13 13 13 13 14 15 15 15 15 14 13 13 12 12 12 12 11 11 11 10 11 10 10 10 9 10 11 10 10 10 10 11 12 15 16 16 16 15 17 17 17 17 17 16 16 15 14 14 13 13 14 14 16 18 17 17 18
10 11 12 12 11 10 10 9 9 7 8 9 11 12 13 13 12 12 11 10 10 10 11 11 11 11 11 12 12 12 12 12 13 14 14 14 13 14 13 13 12 12 11 11 11 11 11 11 11 11 11 10 10 10 10 9 9 10 12 12 14 17 16 15 13 13 16 17 17 17 18 18 17 16 15 16 16 15 15 15 17 17 16 17 17
11 11 12 12 12 10 10 11 10 9 9 10 12 13 14 14 13 12 12 11 10 11 11 10 10 10 11 11 11 11 11 11 12 13 13 13 12 12 12 12 12 12 11 11 11 11 11 11 11 10 11 11 10 10 10 9 10 11 12 13 14 15 14 14 12 12 16 16 17 18 18 18 17 15 14 16 17 18 18 18 17 17 17 16 17
13 13 13 13 13 12 11 11 10 9 9 10 12 13 13 14 13 13 12 11 11 10 9 9 9 10 11 11 10 10 10 10 11 11 12 11 11 11 11 11 11 11 10 10 10 10 10 10 9 9 10 11 10 10 9 10 12 12 12 12 13 14 14 14 12 11 15 16 17 19 18 17 16 14 13 15 15 16 17 17 17 17 17 16 17
14 15 15 15 13 12 10 10 9 9 9 10 11 12 13 13 13 12 11 11 10 9 8 8 8 10 10 10 9 9 9 9 9 10 10 10 10 10 10 10 10 10 10 9 9 9 9 9 9 9 10 10 10 10 10 12 12 11 10 11 12 13 13 14 13 10 13 16 18 18 17 17 15 14 14 14 15 16 18 18 18 18 17 16 17
13 15 17 16 12 12 10 9 9 8 9 10 10 11 12 12 12 11 11 10 9 8 8 8 8 9 9 8 8 8 9 8 8 8 9 9 9 8 9 9 9 9 9 9 8 9 9 9 9 9 10 10 10 11 12 12 11 10 10 10 11 11 11 12 12 11 13 16 18 18 18 18 16 14 14 15 15 16 18 18 18 18 17 16 17
17 15 16 15 12 14 13 11 10 10 9 10 10 11 12 12 12 11 10 9 8 8 7 7 7 7 7 6 6 7 7 7 6 7 7 7 7 7 8 8 9 8 8 8 8 8 9 9 9 10 10 10 11 11 11 10 9 9 10 11 11 10 10 11 11 13 14 16 16 15 18 19 18 15 13 14 15 16 17 17 16 17 17 16 17
17 14 13 13 13 16 14 12 12 11 11 10 10 11 12 12 11 10 9 8 8 7 7 6 6 5 5 4 4 5 5 5 5 5 5 5 5 6 6 7 7 7 8 7 7 7 8 9 9 10 10 10 11 11 10 9 8 8 10 11 11 10 9 9 9 11 13 14 11 10 17 19 17 15 13 13 14 15 15 15 15 16 16 16 16
15 15 11 11 15 15 13 13 13 13 12 12 12 13 13 13 11 10 8 7 6 6 6 5 4 3 3 2 2 2 3 3 3 3 3 4 4 4 5 5 6 6 7 7 7 6 7 8 9 9 9 10 10 10 10 7 6 7 9 11 11 10 9 8 7 7 8 6 4 8 17 18 16 15 13 13 13 14 15 15 15 15 15 16 16
15 16 11 12 16 14 15 14 15 17 15 15 13 12 12 11 9 8 7 6 5 5 5 4 3 3 2 1 1 2 2 2 2 2 2 3 3 3 4 4 4 5 6 6 7 7 7 8 9 9 9 9 9 10 10 7 5 7 9 10 10 9 7 5 5 5 5 2 6 14 18 17 16 14 13 12 12 13 14 15 15 14 15 16 16
14 15 13 15 16 15 16 15 16 17 15 12 10 10 9 8 8 7 7 6 5 5 5 4 4 4 4 3 4 4 3 3 3 4 3 4 3 2 3 3 3 4 5 5 6 7 8 8 8 8 8 8 8 9 9 8 7 8 9 8 8 7 6 4 4 4 3 6 14 17 18 18 17 15 13 12 12 14 15 15 15 15 15 15 15
13 11 13 17 18 17 17 16 15 15 14 11 9 8 7 7 6 7 7 6 5 5 5 5 5 5 5 5 5 5 5 5 5 5 5 4 3 1 1 3 3 5 5 4 5 7 8 8 8 7 8 8 8 8 8 8 7 8 7 7 7 8 6 3 2 4 2 12 13 15 20 19 17 16 13 12 13 15 14 13 14 14 14 14 14
10 9 14 19 20 18 17 16 14 15 14 12 9 8 6 5 5 6 7 6 6 5 5 6 6 6 6 6 5 5 5 5 5 5 5 5 4 3 1 2 3 5 5 4 5 6 7 7 6 7 9 10 9 9 8 8 7 6 6 7 7 7 4 3 2 5 5 12 11 17 21 18 18 17 13 12 13 13 13 14 14 13 13 14 13
12 13 17 20 19 18 16 15 14 14 14 10 9 7 6 5 4 4 5 6 6 5 6 6 6 6 5 5 5 5 4 4 4 4 5 5 4 4 2 2 3 4 4 4 6 7 8 6 5 8 10 10 9 8 8 7 6 5 5 6 6 5 3 2 2 3 5 11 13 17 17 16 17 16 14 12 12 12 13 14 14 13 13 13 13
17 17 19 20 18 17 15 14 14 13 11 9 8 7 5 4 3 3 4 4 6 6 6 6 5 5 5 5 5 4 4 4 4 5 5 5 5 5 3 3 3 3 4 5 6 7 7 6 5 8 10 8 7 7 6 5 5 5 4 4 4 3 2 2 3 3 6 12 15 17 15 14 14 15 15 12 12 12 12 13 13 13 13 13 12
22 21 21 20 18 16 14 14 13 10 9 7 7 6 5 4 4 4 3 4 6 6 5 4 4 4 4 5 4 4 5 4 5 5 5 5 5 4 4 4 3 3 4 4 5 6 6 5 4 7 9 6 5 5 5 4 3 3 4 4 4 4 3 2 4 4 6 11 14 15 14 13 13 15 15 13 13 12 12 13 13 13 13 12 12
23 23 23 20 18 18 15 13 10 7 7 7 6 5 5 5 6 5 5 5 5 4 4 4 4 4 4 4 4 4 5 5 5 5 5 5 5 4 4 4 3 3 4 4 4 5 6 6 4 6 8 6 5 5 5 4 3 3 2 4 4 5 4 4 2 4 5 9 12 12 11 13 13 14 14 13 13 12 13 13 13 13 12 12 12
20 22 24 21 20 20 17 16 12 9 7 6 6 4 4 4 5 6 6 6 5 5 4 4 4 4 4 4 4 4 4 4 4 4 4 4 4 4 3 4 4 3 3 4 4 5 7 6 5 7 8 7 6 5 5 4 4 3 2 2 2 4 4 3 1 4 2 8 11 11 10 11 14 14 13 13 13 12 12 12 12 12 11 11 11
18 18 20 19 19 18 17 18 14 10 6 5 6 5 4 4 5 5 5 5 5 5 5 4 3 3 3 2 2 3 3 3 3 4 3 3 3 3 3 3 3 3 2 2 4 5 7 7 6 8 8 7 7 6 5 4 3 3 2 1 1 2 3 3 1 3 2 10 10 11 10 10 13 15 14 13 13 13 12 12 12 11 11 10 11
18 16 15 15 16 14 14 15 13 9 7 6 6 5 4 5 6 5 5 4 5 4 5 5 3 3 3 2 2 2 1 1 2 2 2 2 2 2 2 3 3 3 2 0 2 6 7 7 8 8 8 7 7 6 5 4 4 3 2 2 1 1 2 2 2 5 4 11 11 11 10 10 11 14 16 14 13 13 12 11 11 11 11 11 11
16 15 14 13 13 13 14 13 12 9 8 7 5 5 6 6 5 6 6 5 5 4 5 5 3 4 3 3 2 3 4 3 3 3 2 1 1 1 1 2 3 3 2 0 1 6 8 8 8 8 8 7 7 6 5 5 4 4 3 1 1 2 2 2 3 7 5 10 12 10 10 10 10 13 15 15 14 13 12 12 11 11 11 11 11
12 13 14 14 13 12 14 13 13 10 8 8 7 6 6 6 4 5 7 6 5 3 3 3 2 4 3 2 2 2 4 3 4 4 2 1 1 2 2 3 4 4 3 1 1 5 8 8 8 7 7 6 6 5 5 5 5 4 3 2 2 2 2 4 4 4 2 10 13 11 11 9 9 12 14 15 15 14 13 12 12 12 10 11 11
11 11 12 12 11 12 12 13 13 10 8 8 7 6 6 6 4 5 5 4 4 3 3 3 1 2 2 2 2 3 4 4 4 4 2 2 2 2 3 3 4 5 5 4 3 4 6 7 7 6 6 6 7 6 5 7 8 6 5 4 3 2 4 7 6 5 2 9 13 12 10 8 9 14 16 15 15 14 13 13 13 12 11 11 11
12 11 10 9 9 11 11 11 12 10 9 9 7 7 7 6 5 6 5 2 2 2 2 2 1 2 2 2 2 3 3 3 4 4 3 4 3 2 3 3 4 5 5 6 5 5 6 7 6 6 6 7 7 7 7 8 8 8 8 5 3 4 8 7 6 6 3 9 11 11 9 7 9 14 18 17 15 15 13 13 13 13 12 10 11
12 12 11 9 8 10 11 10 10 9 9 9 7 7 7 6 7 7 6 4 1 1 2 2 1 3 3 1 1 2 3 3 4 4 5 6 5 4 4 4 5 6 7 7 6 6 7 6 5 6 6 7 8 8 8 9 9 10 10 7 5 7 9 7 5 5 5 9 9 9 7 7 10 14 18 18 15 15 14 14 13 13 13 11 11
13 14 13 11 9 9 10 10 10 10 8 7 8 7 7 8 8 8 7 6 4 2 3 2 3 2 3 2 0 1 2 3 3 5 6 6 6 6 5 5 6 8 8 8 8 7 7 6 6 7 6 7 10 10 10 11 10 9 9 8 9 9 8 8 8 6 6 10 9 7 6 7 10 14 17 17 16 15 13 14 13 13 13 12 12
14 15 13 12 11 10 11 11 10 10 6 6 9 8 8 8 9 7 5 6 5 4 3 3 3 2 3 2 1 0 1 1 2 4 7 6 6 8 6 6 7 8 9 10 9 8 7 8 9 9 9 9 10 12 12 12 11 9 8 9 9 8 9 9 9 8 8 10 9 7 6 7 9 13 16 17 18 16 14 14 14 13 13 12 12
15 14 14 13 12 10 11 10 9 9 6 7 9 8 8 7 6 5 4 4 4 3 2 2 2 2 3 2 1 1 1 1 1 2 5 4 5 7 7 6 8 8 9 11 10 9 9 10 11 12 12 12 11 12 12 11 12 12 10 11 10 7 8 9 8 9 11 11 10 9 7 7 8 11 15 17 18 18 16 15 14 13 13 12 12
13 13 13 12 11 11 10 9 9 8 6 6 6 5 5 4 3 3 3 3 3 3 3 1 1 1 2 2 2 1 1 1 2 1 2 3 3 6 6 5 7 7 7 9 8 8 9 10 12 12 11 12 11 10 9 8 10 10 9 8 9 9 8 8 7 8 11 13 12 12 10 8 9 10 13 16 17 17 17 17 16 15 14 13 13
12 11 11 11 11 11 9 9 9 8 7 6 5 4 3 3 3 2 2 3 2 2 2 2 1 1 2 2 2 0 0 1 2 1 1 3 2 4 6 5 6 9 7 6 6 7 7 7 10 10 10 9 8 7 6 7 8 9 9 7 6 8 9 8 8 7 7 13 13 13 13 10 10 11 12 14 16 17 17 16 16 16 15 15 14
10 11 10 9 10 10 9 9 9 8 7 6 5 4 4 3 3 2 2 1 1 1 2 2 2 2 1 2 2 1 1 1 1 1 1 1 2 2 4 4 5 8 7 6 6 7 6 6 7 8 9 8 7 6 6 8 10 11 10 9 7 8 10 9 8 8 5 9 14 14 16 12 10 12 12 14 15 16 17 17 16 16 16 15 15
11 11 9 8 8 8 8 8 9 8 7 6 5 5 5 4 4 3 2 1 1 2 2 2 2 2 1 2 2 1 1 2 2 1 1 1 2 1 2 3 3 6 7 6 6 6 5 6 7 6 7 7 8 8 7 8 10 11 11 12 11 9 10 10 9 9 7 6 11 13 16 15 12 11 11 13 14 15 16 17 17 17 16 15 15
10 10 9 9 8 7 8 7 7 7 7 6 5 5 6 5 6 5 3 2 1 2 2 2 2 2 2 2 2 2 2 2 2 2 1 2 2 2 3 4 3 5 6 6 7 8 8 8 8 8 7 7 8 8 8 9 9 11 11 12 12 10 10 11 11 9 8 6 10 14 15 16 15 12 12 12 12 14 15 16 17 17 17 16 16
8 8 9 10 8 7 7 6 6 6 6 5 5 5 6 6 7 6 5 4 2 2 2 2 2 2 2 2 3 2 2 2 2 1 1 1 2 3 4 4 4 4 6 8 8 8 9 9 9 8 8 8 9 9 9 10 10 12 12 10 11 11 11 11 10 8 7 6 7 11 13 14 15 14 15 14 13 13 14 15 16 17 17 18 17
8 8 10 9 8 7 7 7 7 6 6 5 6 6 7 7 7 8 8 7 4 2 2 1 1 1 1 2 3 2 2 2 2 2 2 1 1 1 2 3 4 4 6 7 6 7 8 9 8 8 8 8 8 9 10 11 11 12 11 9 9 10 10 10 10 9 9 8 7 9 11 13 13 13 15 16 16 14 14 15 15 16 17 18 18
10 10 10 8 7 7 7 8 8 8 8 7 7 8 9 9 10 10 10 11 9 7 5 2 1 1 1 2 3 3 3 3 2 3 2 2 2 1 2 3 3 4 6 6 5 7 8 7 7 7 7 7 8 9 9 9 9 11 11 10 10 10 10 10 10 9 9 9 8 9 10 10 12 13 15 16 16 15 15 15 16 16 17 18 19
10 11 10 10 9 9 9 10 10 10 11 10 10 9 8 8 7 7 8 11 12 12 14 12 7 4 2 3 3 3 3 4 3 3 3 3 2 2 2 3 3 4 6 5 5 6 6 6 7 6 6 7 8 8 8 8 8 10 11 12 12 11 11 9 9 10 10 9 7 6 8 10 13 16 18 17 14 13 14 15 16 17 17 18 18
10 11 12 12 12 11 12 13 14 14 14 13 12 10 8 6 6 5 5 8 9 11 15 17 16 12 5 4 4 4 4 4 4 4 4 4 3 3 3 3 3 4 4 4 5 5 5 6 6 6 6 6 7 8 8 8 9 9 10 11 13 12 11 10 10 11 10 10 9 6 7 10 13 14 17 17 15 14 14 14 15 17 18 19 19
10 11 13 13 12 12 12 13 15 16 16 15 13 12 12 10 9 8 9 11 12 11 11 11 14 14 9 6 6 5 5 5 5 5 5 4 4 4 4 4 4 4 4 5 6 5 6 7 7 7 7 7 7 7 7 7 8 9 8 8 10 11 10 10 12 12 11 12 12 9 9 12 12 13 14 14 14 15 16 15 14 16 19 19 19
10 11 11 12 12 12 13 14 16 17 16 16 15 15 15 14 13 12 12 13 14 15 12 9 8 8 8 10 8 7 7 7 6 5 5 6 5 5 6 6 5 5 5 6 6 6 7 7 7 7 7 7 7 7 7 7 8 9 9 9 9 10 11 12 13 13 12 13 14 12 12 13 12 12 13 13 12 14 17 17 15 15 17 18 18
12 12 12 12 12 13 14 15 16 17 17 18 18 15 14 13 14 13 13 14 15 15 13 11 9 8 8 9 7 8 8 8 8 8 7 6 6 6 7 7 7 6 6 6 7 7 7 7 7 7 7 8 8 7 7 6 7 8 8 9 10 9 10 12 14 14 15 15 15 14 12 13 13 13 15 15 12 12 16 17 15 15 16 16 15
13 13 12 13 14 14 16 16 16 17 17 19 18 15 13 12 12 10 13 15 14 15 14 13 13 10 8 7 6 7 6 6 8 9 9 9 8 8 8 8 8 8 8 7 8 7 8 8 8 8 8 8 9 8 6 5 7 7 5 5 7 8 10 12 13 14 15 16 17 15 13 15 15 13 15 15 14 14 16 15 13 15 16 15 13
12 13 13 13 14 15 16 16 17 17 17 18 17 15 13 13 12 11 14 16 14 15 13 12 13 12 11 10 8 8 7 6 6 6 7 8 8 9 10 10 10 10 9 9 9 9 9 10 9 10 10 10 10 9 7 5 6 8 6 3 3 3 6 10 13 13 13 14 15 15 16 16 14 13 11 10 14 17 15 11 11 14 16 15 14
11 12 13 13 13 15 15 15 16 17 17 17 17 15 13 13 14 13 14 15 14 16 14 12 12 14 14 13 12 11 9 8 9 7 5 6 6 6 8 11 12 11 11 11 12 11 11 10 10 10 11 11 12 10 6 5 5 5 5 4 3 2 2 3 7 11 11 11 13 14 15 16 15 14 11 8 12 14 11 10 12 14 14 14 13
11 11 12 13 13 14 15 14 15 16 17 17 17 16 14 15 15 15 16 15 14 16 17 15 16 16 16 15 15 13 11 10 11 10 8 8 7 4 4 6 9 11 12 12 13 14 13 11 11 11 12 11 12 13 9 6 6 5 4 4 3 2 0 4 3 6 8 7 10 12 12 14 14 12 13 11 9 10 9 13 14 13 14 12 10
11 11 12 13 13 14 14 14 15 16 16 17 17 17 16 16 16 16 17 16 14 15 15 15 17 17 16 15 14 13 13 12 11 9 7 9 9 6 5 5 6 9 12 13 13 13 14 12 12 13 13 11 11 12 12 11 9 8 8 8 7 5 3 5 5 1 4 4 6 8 9 11 12 9 9 8 9 11 10 15 13 11 13 14 12
11 11 11 12 13 14 14 14 15 16 16 17 17 17 17 17 16 16 15 15 14 14 14 14 16 17 16 15 14 13 13 12 11 10 8 10 9 7 6 7 7 8 10 12 13 14 14 13 14 14 13 11 11 11 11 12 11 9 9 9 10 10 9 7 4 2 2 2 3 4 5 5 5 3 1 6 12 13 13 14 11 10 12 14 15
10 10 11 12 12 13 14 14 14 15 16 16 16 17 17 16 17 16 15 15 15 15 15 14 16 17 17 15 14 14 14 13 12 12 10 10 9 7 9 10 10 9 9 10 12 12 13 13 13 14 13 11 12 13 13 13 13 12 10 9 9 10 11 12 11 8 3 2 3 4 6 5 3 3 2 6 9 10 12 13 12 12 11 12 13
10 10 11 12 12 13 15 15 14 15 16 16 16 16 16 16 17 17 16 15 16 15 15 15 15 16 16 15 15 15 15 14 14 13 12 11 10 10 12 13 12 11 12 12 12 12 13 12 12 13 14 13 13 13 14 14 14 15 14 10 9 9 12 13 14 13 7 4 4 3 5 6 6 4 4 4 4 5 7 10 12 12 10 7 8
10 11 11 13 14 14 15 16 16 16 16 17 17 17 16 16 16 16 16 16 16 16 16 16 16 16 16 16 16 15 15 15 14 14 14 13 13 13 13 13 13 13 14 14 14 15 15 13 12 13 14 15 15 14 15 15 15 16 16 14 11 9 9 9 10 10 9 7 5 5 5 5 7 8 10 8 8 8 6 8 11 11 11 7 4
11 12 12 13 14 15 15 16 17 16 17 17 17 17 16 17 16 16 16 16 16 17 17 16 17 17 17 17 16 16 15 14 14 14 14 14 14 15 15 14 15 15 15 16 17 17 17 15 14 14 14 14 15 15 16 16 16 16 16 16 14 12 10 8 9 9 5 4 3 4 6 4 5 11 14 10 10 12 10 10 11 11 12 9 7
Wind_Direction
91 119 131 140 144 143 141 136 129 128 124 121 117 117 120 123 125 123 121 118 117 111 109 109 108 106 103 103 102 103 101 97 93 91 88 85 85 89 92 93 96 97 100 102 103 105 105 105 103 102 100 96 96 98 97 96 96 92 88 84 86 91 94 96 97 104 103 98 96 96 96 95 93 89 82 78 79 105 113 90 88 93 93 93 93
105 120 135 145 146 145 142 142 140 142 137 130 124 123 123 124 125 124 126 124 121 115 114 111 109 108 107 107 106 104 102 99 97 94 91 90 89 89 92 93 96 98 100 103 105 106 105 105 104 105 102 100 98 99 99 97 95 93 93 92 97 97 94 98 100 102 103 99 99 98 97 96 94 90 82 80 80 93 105 97 95 96 97 97 97
118 126 140 148 149 149 147 152 151 150 143 136 130 125 124 123 124 123 123 122 121 117 116 114 111 112 112 111 108 105 104 103 100 98 96 95 94 93 94 97 100 101 103 105 107 105 103 103 103 105 106 107 104 103 103 99 99 100 101 101 105 107 106 108 107 104 108 108 108 105 102 98 92 90 86 85 86 90 98 102 103 103 103 101 100
119 128 143 155 159 155 153 157 155 153 145 134 130 125 123 120 121 121 118 119 120 118 115 114 113 115 116 114 110 108 108 107 104 102 102 100 100 100 100 102 104 106 107 107 107 104 103 103 105 108 113 114 111 109 105 105 106 104 106 108 110 116 122 123 122 117 118 118 115 109 103 99 90 88 90 88 90 93 96 99 102 102 101 100 102
112 130 148 160 162 155 152 157 155 153 139 123 120 116 115 114 115 115 113 116 116 114 111 109 111 115 118 116 112 111 112 113 110 107 105 104 103 103 106 107 110 113 110 108 107 107 105 103 106 111 116 116 113 111 109 112 110 107 110 114 114 119 127 131 133 131 127 123 118 113 106 100 93 89 92 93 92 95 96 96 99 100 99 99 102
133 146 155 156 154 150 146 150 146 137 126 110 107 105 106 107 107 108 109 111 110 107 104 101 104 113 118 116 114 114 116 118 116 111 107 105 103 105 108 110 114 117 112 106 103 106 107 105 109 113 115 116 115 113 113 112 110 118 127 122 120 123 125 131 138 140 136 132 124 114 108 102 96 93 94 97 95 97 98 99 102 103 102 95 96
156 156 152 149 151 154 148 144 133 119 111 99 95 92 93 95 95 100 103 102 103 101 100 100 103 112 119 119 120 120 120 119 115 110 109 107 106 106 106 110 116 117 113 107 103 106 108 109 115 118 119 118 118 115 111 110 112 128 138 131 127 132 129 130 136 140 142 144 138 116 107 103 99 99 99 100 99 99 100 103 106 107 106 100 97
154 153 150 152 156 155 144 133 123 111 103 92 86 82 80 80 83 89 93 97 99 101 103 104 106 113 122 126 127 125 122 119 109 101 104 108 110 112 107 108 115 118 116 112 109 107 106 112 119 120 121 120 120 117 112 118 126 132 141 138 133 139 139 136 136 145 153 153 154 125 108 104 102 106 107 106 106 106 105 106 109 107 106 106 103
156 155 152 153 152 143 125 111 104 99 91 82 76 74 73 72 71 73 79 89 95 101 105 106 108 112 121 129 125 112 111 110 94 90 105 111 115 123 118 115 117 122 123 120 119 111 107 115 122 120 121 122 122 120 118 124 135 135 139 138 133 138 143 146 152 162 176 179 183 137 116 107 105 112 115 114 114 115 113 111 110 107 106 107 106
162 157 139 135 139 126 108 99 97 93 84 80 79 81 84 86 86 89 93 92 93 93 93 94 89 89 87 81 72 68 70 70 77 85 107 110 113 135 137 130 123 129 132 128 129 121 113 120 124 123 124 126 129 129 124 117 124 131 132 135 134 141 150 166 195 210 238 233 124 120 115 111 113 116 119 118 118 120 119 114 110 109 108 107 105
164 150 123 117 120 115 104 97 100 95 88 91 102 112 116 118 122 127 117 101 96 86 78 73 65 66 63 58 58 61 58 56 66 75 80 88 94 122 141 142 129 132 135 130 132 124 118 123 127 127 130 132 133 132 130 127 130 133 134 142 149 156 158 163 192 256 264 136 117 116 116 116 116 118 120 119 117 118 120 115 108 108 109 109 107
160 135 105 93 94 104 100 92 95 92 92 100 108 116 121 121 122 119 105 91 86 84 77 67 65 62 57 58 57 60 59 56 55 61 64 69 74 52 129 161 151 144 138 129 130 123 122 126 131 135 135 130 127 129 131 131 130 134 140 151 161 163 163 172 193 331 54 119 114 121 125 121 120 122 121 118 117 117 120 114 109 111 113 112 110
131 99 82 80 84 91 93 94 95 94 95 99 106 112 120 124 129 126 113 93 74 70 73 68 69 64 58 57 54 56 55 57 53 55 57 56 61 33 42 160 143 146 144 138 138 128 128 129 134 141 136 128 126 129 126 118 115 120 130 142 156 166 183 224 270 339 84 119 122 129 129 124 127 129 126 121 120 118 118 115 114 118 117 116 117
91 77 74 73 77 81 88 94 90 92 95 104 116 122 126 128 138 132 118 101 78 61 61 62 68 68 61 55 51 53 51 56 54 53 55 52 57 49 62 143 132 150 153 146 147 137 138 140 140 145 142 134 132 132 127 119 113 114 124 142 159 177 224 268 310 339 127 130 128 135 134 127 127 131 131 128 127 125 122 120 122 121 119 121 121
74 72 75 72 71 78 84 85 82 86 95 109 117 124 132 128 131 114 103 93 75 65 59 58 68 73 65 57 49 47 49 49 50 49 52 54 57 58 74 118 132 154 153 148 148 143 147 158 153 155 156 146 139 140 142 137 127 132 143 163 181 200 282 298 319 336 143 131 118 128 134 128 127 132 135 134 132 131 128 126 128 126 123 124 123
77 77 83 84 82 84 79 71 72 81 93 107 119 135 142 135 137 130 124 95 74 72 70 64 62 65 58 54 49 48 49 41 43 45 49 58 61 64 76 105 134 152 151 150 152 153 157 167 165 165 171 165 156 156 163 169 164 156 159 182 202 215 240 264 317 358 140 137 124 131 132 126 127 134 138 138 136 135 135 132 132 131 127 127 128
88 93 96 100 98 95 93 87 87 98 106 117 130 145 152 152 152 149 135 109 92 80 79 76 57 48 39 35 38 45 50 44 45 45 47 58 66 77 89 114 142 155 157 156 164 171 170 176 185 174 178 182 180 178 180 189 202 201 191 193 216 217 218 258 327 46 134 141 137 149 143 134 132 135 142 143 143 142 140 137 136 135 131 132 135
102 109 111 117 116 115 121 123 121 119 121 134 138 146 163 156 149 146 129 120 114 93 88 86 70 55 37 21 21 35 47 47 49 51 50 55 63 78 102 124 136 151 166 180 196 196 185 186 194 178 179 188 185 187 190 194 211 221 231 209 225 217 219 248 169 66 139 144 140 156 149 142 144 142 147 150 148 147 146 142 141 140 138 136 138
101 107 110 112 114 123 125 120 115 111 118 136 134 138 154 133 128 129 118 122 116 103 100 92 91 87 77 54 36 48 42 43 51 53 50 45 50 66 100 124 132 145 156 203 218 197 181 183 188 180 180 192 189 192 201 207 224 222 242 255 263 215 226 241 175 26 166 156 157 169 153 144 150 149 151 155 152 151 152 150 150 148 147 143 139
86 84 86 87 93 107 108 105 108 113 110 108 114 122 134 124 119 120 119 118 111 119 117 105 115 109 111 171 157 146 202 131 101 86 82 42 32 48 92 129 142 144 128 201 214 178 174 183 186 180 182 196 200 206 218 222 233 234 256 272 316 270 247 267 288 299 228 169 167 171 160 149 152 155 154 156 156 155 157 156 157 152 150 152 147
85 83 80 83 88 95 97 96 97 104 109 109 106 103 112 112 113 120 118 108 104 116 116 111 121 120 141 206 168 177 218 200 190 198 170 115 59 54 113 151 165 164 158 127 206 175 174 183 184 183 188 201 210 221 234 236 243 239 257 283 296 285 251 284 266 273 248 177 173 173 169 160 159 162 157 158 160 159 160 161 160 155 153 158 158
82 85 83 83 82 87 95 96 93 95 110 116 110 96 93 101 110 113 109 104 110 115 117 123 130 129 145 202 170 184 236 239 224 220 190 145 145 169 171 172 183 184 184 187 181 172 174 183 187 190 194 205 220 233 251 267 280 261 253 258 262 272 261 278 247 255 242 178 180 179 176 168 168 166 158 160 164 163 164 165 164 160 158 163 164
84 80 76 75 78 86 89 89 91 92 91 96 106 106 102 122 128 111 114 122 142 168 155 133 129 134 153 223 203 189 237 259 245 237 197 186 193 185 182 188 200 197 194 196 187 176 179 186 193 203 207 217 231 242 256 271 282 283 277 250 248 281 271 270 244 250 238 175 176 174 178 175 173 169 161 163 168 169 168 169 169 165 162 165 169
99 94 84 77 77 81 75 68 77 83 81 84 96 96 94 122 132 120 129 142 154 173 144 114 154 157 154 220 216 183 210 226 232 235 201 203 206 194 203 199 204 206 205 203 198 197 195 197 205 214 219 227 241 249 253 257 256 261 272 260 256 270 259 260 241 246 212 174 172 169 177 176 178 176 166 166 172 175 173 173 173 170 167 167 173
103 96 86 80 73 74 73 66 65 67 74 82 93 91 86 105 117 115 120 129 134 97 121 126 141 138 115 130 209 175 194 204 208 222 209 205 202 198 205 198 199 206 212 210 206 206 205 212 227 227 224 229 247 252 252 259 250 239 250 254 249 248 251 256 240 240 208 183 177 170 176 175 184 183 170 169 176 179 177 178 178 176 174 173 176
93 84 80 74 66 67 76 78 71 65 62 73 88 88 81 92 99 99 104 112 105 96 134 138 125 117 95 96 300 176 216 225 212 232 226 217 214 210 200 200 206 207 211 213 212 210 203 210 234 245 243 241 248 248 249 262 259 239 243 252 245 239 244 246 231 223 204 191 181 174 178 179 188 185 174 171 178 185 184 182 183 183 182 182 181
85 82 82 74 64 58 67 76 76 72 53 54 76 75 67 78 87 90 97 103 105 116 138 137 121 107 100 102 48 127 264 261 221 241 233 227 223 218 212 209 214 212 211 214 218 217 207 212 230 239 242 250 253 249 254 264 260 245 244 254 246 238 242 242 225 203 196 197 190 185 185 186 189 182 178 176 180 187 188 185 186 187 187 189 187
83 82 79 75 68 56 61 67 65 69 50 34 53 59 59 70 81 81 87 100 116 135 151 136 109 98 113 126 110 151 284 304 288 261 236 226 208 209 215 214 215 217 218 218 221 226 218 220 236 240 242 254 259 257 264 267 260 252 248 254 247 238 247 250 236 208 203 207 199 193 195 195 188 180 182 183 184 187 189 189 190 192 192 194 192
81 82 79 77 74 63 61 62 54 57 54 34 38 50 55 67 88 88 92 112 132 156 174 149 91 74 90 112 125 159 256 264 277 275 229 214 191 193 192 192 201 202 218 222 221 228 224 223 234 240 246 255 256 257 265 264 259 253 253 262 250 238 253 265 255 230 212 210 205 194 196 204 189 179 183 186 190 191 190 191 191 194 196 198 198
85 88 87 85 82 74 69 67 59 53 51 44 36 44 52 58 76 84 84 111 136 157 151 119 84 52 57 94 112 32 220 225 258 257 192 171 179 191 180 181 190 191 204 218 222 225 221 226 228 234 247 251 252 256 257 255 253 248 254 271 262 241 250 269 265 255 219 205 208 198 194 202 193 185 185 186 192 196 196 195 194 197 199 201 202
83 83 83 86 87 87 84 78 72 65 56 50 37 28 35 34 31 42 57 91 124 103 112 111 101 95 75 115 123 63 63 138 239 278 325 150 187 201 185 195 196 196 204 205 221 227 216 230 233 241 252 252 257 254 235 242 251 252 257 263 275 267 255 264 261 271 277 208 209 208 198 197 193 188 189 189 192 197 200 199 199 201 204 204 205
76 74 77 82 83 83 82 74 74 77 70 61 49 29 26 22 16 19 18 20 81 90 101 104 102 110 99 95 103 97 98 126 160 182 352 306 266 276 222 227 201 200 211 203 216 236 240 247 248 253 254 252 258 254 242 253 262 264 265 262 269 276 263 265 260 265 288 232 215 221 208 199 196 191 192 194 194 197 201 202 201 203 207 209 209
76 73 72 71 67 70 73 61 54 65 70 64 59 45 32 23 15 9 358 1 58 98 106 103 105 88 73 80 79 65 78 93 106 124 137 255 245 240 245 248 221 205 223 225 224 232 240 245 246 249 250 252 256 255 253 258 265 265 265 266 267 265 255 257 259 263 282 264 239 237 219 200 200 201 201 201 200 202 203 204 204 204 208 211 212
67 62 61 60 56 60 73 70 53 51 53 51 52 46 35 27 16 4 355 349 11 74 80 88 113 97 63 67 74 60 59 69 54 91 130 249 228 209 220 232 226 217 236 240 232 231 235 241 243 245 246 246 251 254 252 248 253 259 258 264 269 264 254 248 251 266 277 253 227 229 214 201 204 209 212 211 210 210 208 208 209 208 209 211 213
61 53 52 56 59 53 52 54 50 45 41 37 35 29 28 26 15 5 353 339 341 24 40 46 72 96 88 61 62 53 52 70 41 42 72 2 295 237 232 247 238 226 244 245 244 247 242 244 247 247 249 247 249 252 252 244 243 256 259 258 263 266 264 253 247 262 270 245 212 203 201 202 206 210 218 221 218 215 215 214 213 214 213 213 213
55 45 43 44 51 54 45 39 36 31 30 27 24 22 22 19 13 7 352 342 345 357 1 345 358 42 75 57 44 42 29 32 35 32 44 19 330 300 251 255 248 240 252 248 250 259 249 248 250 248 257 259 257 257 255 248 246 258 259 249 252 258 260 255 253 261 262 254 233 203 202 209 209 209 212 219 221 216 219 220 217 219 218 217 215
44 35 33 30 33 43 40 35 31 25 20 18 18 17 18 18 16 8 349 346 348 350 349 346 347 357 43 54 27 27 14 4 13 14 28 23 343 326 287 264 261 253 261 260 258 267 262 257 255 252 261 265 268 269 262 255 253 253 247 247 252 251 252 253 258 258 247 251 254 226 227 228 218 211 204 207 218 217 219 222 221 223 222 222 221
34 27 27 24 23 26 24 23 24 21 18 17 15 7 4 8 8 4 352 354 356 352 349 349 350 346 360 43 16 8 2 352 352 351 11 14 347 334 318 298 287 270 275 281 274 274 271 269 270 265 265 272 276 277 273 268 266 259 251 253 251 245 248 250 252 254 247 247 246 232 234 231 218 211 205 208 217 220 222 224 222 224 225 226 225
32 24 23 22 20 17 16 19 21 21 20 19 16 6 3 5 7 7 5 7 9 3 357 355 351 347 355 12 4 360 352 348 346 342 352 352 338 332 323 320 311 294 294 293 285 280 276 279 285 282 278 280 280 283 286 281 278 276 269 258 248 244 246 243 243 249 250 248 243 226 218 226 224 217 213 215 219 221 225 226 223 224 224 225 225
36 29 26 24 20 16 17 20 22 24 22 18 17 12 7 8 8 7 7 10 8 3 4 6 5 14 11 357 357 0 353 352 349 343 346 338 331 326 321 323 317 306 307 303 297 292 286 284 285 287 288 289 288 283 281 282 287 287 283 272 256 250 248 241 237 238 242 245 243 227 213 222 231 230 228 227 228 226 224 225 228 229 227 225 226
36 32 33 31 26 22 22 22 24 27 23 18 20 21 15 9 5 2 2 5 3 0 6 9 12 35 24 356 359 3 357 357 353 349 345 333 328 324 318 321 317 312 313 308 303 298 292 288 287 290 288 287 288 282 279 284 286 280 273 269 261 256 252 242 235 235 239 243 241 227 215 226 233 235 233 228 228 228 224 223 227 233 230 224 226
32 28 30 32 28 25 26 27 27 27 22 18 19 22 19 13 6 358 357 3 3 359 2 6 6 16 14 357 353 351 349 352 353 351 346 337 332 328 322 320 316 312 311 307 302 299 294 290 290 295 292 286 283 279 275 275 279 283 280 264 256 254 245 236 235 239 238 238 239 233 223 224 223 225 231 232 235 235 229 224 224 229 227 221 221
33 27 26 29 28 26 26 29 30 28 24 18 16 16 12 11 10 4 2 5 5 0 359 3 4 7 10 6 356 351 350 343 340 341 342 346 341 333 329 326 322 316 311 306 302 296 294 295 295 297 297 294 290 276 252 247 283 306 306 268 246 254 235 228 228 231 234 232 237 240 235 231 230 230 231 227 224 224 224 227 231 228 223 220 218
41 33 27 28 29 28 29 30 31 30 26 20 17 17 11 9 10 8 8 8 3 3 5 3 359 0 5 5 358 355 354 345 344 342 330 334 338 332 331 328 323 319 315 312 307 300 294 290 292 295 295 296 298 293 262 235 265 297 304 290 300 294 232 231 226 220 227 234 236 240 240 241 244 238 230 209 189 193 206 213 219 222 225 232 230
51 42 33 33 33 31 32 33 33 32 28 22 20 23 20 14 12 8 9 11 7 5 6 1 354 356 360 1 358 355 350 341 344 346 327 317 321 315 321 320 316 314 312 309 307 306 303 295 290 288 287 288 294 302 303 282 261 256 271 291 299 277 351 5 329 219 213 226 233 236 235 238 242 239 236 221 159 138 176 187 192 213 227 236 229
58 52 43 40 39 36 35 35 35 32 30 27 24 26 28 23 20 14 8 7 5 4 2 357 354 357 358 358 359 358 355 349 346 342 321 314 316 305 292 290 298 306 306 303 300 302 304 302 295 285 280 282 284 288 293 294 282 253 250 256 258 263 289 337 347 269 212 209 226 239 234 226 226 230 233 208 130 114 159 176 180 205 219 224 219
58 57 53 48 44 42 40 39 40 35 32 31 29 29 30 27 26 21 14 7 2 359 355 354 359 2 2 0 359 357 356 354 353 347 331 323 319 309 301 297 292 292 297 299 296 296 298 298 299 295 289 286 287 287 286 293 293 271 257 251 252 259 262 267 286 313 292 229 219 235 242 238 219 211 149 123 118 123 147 158 163 175 192 209 211
56 54 54 51 47 46 44 43 42 39 35 33 32 32 30 27 25 21 18 13 5 360 353 351 356 360 4 4 359 358 355 350 349 349 343 337 326 315 315 316 307 290 288 290 290 295 297 293 295 300 300 290 287 293 292 292 295 292 283 261 253 262 262 255 248 248 266 282 251 217 218 225 193 175 115 99 114 130 136 137 141 152 172 195 200
52 51 52 50 46 46 46 45 43 40 37 34 33 34 31 29 26 20 16 13 8 4 359 354 353 356 1 2 359 358 357 354 352 349 347 344 332 319 317 323 320 301 289 283 277 282 286 285 285 290 294 288 281 285 286 284 286 291 294 280 261 262 268 267 255 239 226 239 265 244 206 176 157 185 192 150 138 145 132 129 136 148 161 175 196
52 49 50 48 44 44 44 43 41 40 37 36 35 33 33 31 27 23 17 12 9 5 1 359 358 359 359 358 357 355 354 356 356 352 348 345 336 325 319 322 321 310 299 292 285 284 285 282 281 281 282 279 277 277 278 279 278 281 289 291 282 268 266 274 270 250 228 221 231 258 246 174 155 175 179 171 166 162 142 135 139 147 160 155 161
49 46 46 47 43 40 42 42 39 38 36 35 35 34 33 31 26 24 19 13 11 6 2 1 360 358 357 355 353 351 350 351 351 351 350 346 338 330 323 318 315 309 302 296 294 293 290 282 277 276 276 274 274 273 274 276 276 276 279 284 284 277 270 273 279 281 271 246 231 265 282 259 200 176 173 174 170 166 155 146 139 132 151 153 132